Regional Weather Roundup
Issued by NWS

Home | Current Version | Previous Version | Text Only | Print | Product List | Glossary On
Versions: 1 2 3 4 5 6 7 8 9 10 11 12 13 14 15 16 17 18 19 20 21 22 23 24 25 26 27 28 29 30 31 32 33 34 35 36 37 38 39 40 41 42 43 44 45 46 47 48 49 50
000
ASUS43 KMKX 241820
RWRWI

WISCONSIN REGIONAL WEATHER ROUNDUP
NATIONAL WEATHER SERVICE MILWAUKEE/SULLIVAN WI
1200 PM CST FRI NOV 24 2017

NOTE: "FAIR" INDICATES FEW OR NO CLOUDS BELOW 12,000 FEET WITH NO
SIGNIFICANT WEATHER AND/OR OBSTRUCTIONS TO VISIBILITY.

WIZ001-002-006>008-014>016-023>028-241900-
NORTHWEST WISCONSIN

CITY           SKY/WX    TMP DP  RH WIND       PRES   REMARKS
SUPERIOR ARPT  DRIZZLE   42  40  92 SW9       29.28F
6HR MIN TEMP:  40; 6HR MAX TEMP:  44; 6HR PCP:  0.02;

ASHLAND        CLOUDY    49  39  68 SW9       29.25F
6HR MIN TEMP:  44; 6HR MAX TEMP:  52; 6HR PCP: TRACE;

HAYWARD        LGT RAIN  53  38  56 W6        29.30F
6HR MIN TEMP:  38; 6HR MAX TEMP:  53; 6HR PCP: TRACE;

SIREN          CLOUDY    52  38  59 W12       29.34R
6HR MIN TEMP:  42; 6HR MAX TEMP:  53;

CUMBERLAND     SUNNY     50  36  57 W12       29.32F
RICE LAKE      SUNNY     54  38  55 W10       29.32F
6HR MIN TEMP:  38; 6HR MAX TEMP:  55;

CHETEK         SUNNY     54  40  58 NW3       29.32S
6HR MIN TEMP:  42; 6HR MAX TEMP:  56;

LADYSMITH      MOSUNNY   53  38  58 SW7       29.32F
6HR MIN TEMP:  37; 6HR MAX TEMP:  55;

EAU CLAIRE     SUNNY     58  38  47 W12       29.32F
6HR MIN TEMP:  42; 6HR MAX TEMP:  58;

MENOMONIE      MOSUNNY   58  38  48 W12       29.33S
6HR MIN TEMP:  42; 6HR MAX TEMP:  58;

NEW RICHMOND   MOSUNNY   57  37  47 W12       29.33S
6HR MIN TEMP:  42; 6HR MAX TEMP:  57;

OSCEOLA        PTSUNNY   56  39  53 W13       29.38R
6HR MIN TEMP:  40; 6HR MAX TEMP:  56;

$$

WIZ003>005-009-010-017-018-241900-
NORTH CENTRAL WISCONSIN

CITY           SKY/WX    TMP DP  RH WIND       PRES   REMARKS
MANITOWISH WTR CLOUDY    50  38  62 W10       29.29R
6HR MIN TEMP:  36; 6HR MAX TEMP:  51;

ARBOR VITAE    MOSUNNY   55  39  56 W12       29.29F
6HR MIN TEMP:  39; 6HR MAX TEMP:  55;

WOODRUFF       MOSUNNY   55  39  56 W12       29.29F
6HR MIN TEMP:  39; 6HR MAX TEMP:  55;

RHINELANDER    SUNNY     51  37  58 W10       29.29F
6HR MIN TEMP:  38; 6HR MAX TEMP:  51;

EAGLE RIVER    MOSUNNY   50  35  55 W7        29.28F
6HR MIN TEMP:  38; 6HR MAX TEMP:  49;

LAND O LAKES   DRIZZLE   48  35  60 SW7       29.28F
6HR MIN TEMP:  39; 6HR MAX TEMP:  48;

PHILLIPS       MOSUNNY   51  38  62 SW6       29.30S
6HR MIN TEMP:  41; 6HR MAX TEMP:  53;

TOMAHAWK       PTSUNNY   54  37  52 S3        29.30F
6HR MIN TEMP:  38; 6HR MAX TEMP:  54;

MEDFORD        CLOUDY    49  37  61 SW7       29.31S
6HR MIN TEMP:  39; 6HR MAX TEMP:  49;

MERRILL        MOSUNNY   53  38  55 S6        29.30F
6HR MIN TEMP:  38; 6HR MAX TEMP:  52;

$$

WIZ029-030-035-036-043>047-241900-
CENTRAL WISCONSIN

CITY           SKY/WX    TMP DP  RH WIND       PRES   REMARKS
WAUSAU         MOSUNNY   53  36  52 S12       29.29F
6HR MIN TEMP:  39; 6HR MAX TEMP:  54;

MOSINEE        PTSUNNY   55  37  50 S16G22    29.32F
MARSHFIELD     MOSUNNY   58  36  43 SW12      29.29F
6HR MIN TEMP:  41; 6HR MAX TEMP:  58;

STEVENS POINT  SUNNY     59  37  43 SW15G22   29.33F
6HR MIN TEMP:  41; 6HR MAX TEMP:  59;

WAUPACA        CLOUDY    62  35  36 S16       29.35F
6HR MIN TEMP:  44; 6HR MAX TEMP:  62;

WAUTOMA        SUNNY     62  37  39 S13G18    29.36F
6HR MIN TEMP:  39; 6HR MAX TEMP:  62;

WISC RAPIDS    SUNNY     58  37  45 SW12G22   29.34F
6HR MIN TEMP:  44; 6HR MAX TEMP:  59;

CAMP DOUGLAS   SUNNY     61  38  42 SW9G18    29.34F
6HR MIN TEMP:  44; 6HR MAX TEMP:  61;

$$

WIZ011>013-019>022-031-037>040-048>050-241900-
NORTHEAST WISCONSIN

CITY           SKY/WX    TMP DP  RH WIND       PRES   REMARKS
ANTIGO         CLOUDY    50  37  59 SW9       29.30F
6HR MIN TEMP:  36; 6HR MAX TEMP:  50;

SHAWANO        MOSUNNY   58  36  42 SW9G17    29.31F
6HR MIN TEMP:  42; 6HR MAX TEMP:  59;

OCONTO         MOSUNNY   57  36  44 SW21G29   29.33F
STURGEON BAY   MOSUNNY   57  39  51 S15G26    29.34F
6HR MIN TEMP:  40; 6HR MAX TEMP:  59;

GREEN BAY      MOSUNNY   56  39  53 S16G26    29.35F
6HR MIN TEMP:  41; 6HR MAX TEMP:  56;

MANITOWOC      CLOUDY    53  39  59 SE10      29.40F
6HR MIN TEMP:  40; 6HR MAX TEMP:  57;

APPLETON       PTSUNNY   55  32  41 S21G28    29.36F
CLINTONVILLE   SUNNY     55  34  44 S8        29.34F
OSHKOSH        SUNNY     60  38  43 SW20G37   29.38F
6HR MIN TEMP:  41; 6HR MAX TEMP:  60;

$$

WIZ032>034-041-042-053>061-241900-
SOUTHWEST WISCONSIN

CITY           SKY/WX    TMP DP  RH WIND       PRES   REMARKS
LA CROSSE      SUNNY     61  39  44 S10       29.34F
6HR MIN TEMP:  44; 6HR MAX TEMP:  61;

SPARTA         SUNNY     61  39  43 S10       29.34F
6HR MIN TEMP:  42; 6HR MAX TEMP:  61;

VIROQUA        SUNNY     58  40  50 SW16G25   29.37F
6HR MIN TEMP:  39; 6HR MAX TEMP:  58;

BOSCOBEL       SUNNY     64  37  36 SW14G21   29.40F
6HR MIN TEMP:  37; 6HR MAX TEMP:  64;

PRAIRIE DU CHI SUNNY     63  35  35 S7G16     29.39F
6HR MIN TEMP:  44; 6HR MAX TEMP:  63;

PLATTEVILLE    SUNNY     62  40  43 S22G28    29.44F
6HR MIN TEMP:  36; 6HR MAX TEMP:  62;

$$

WIZ056-057-062-063-064-067-068-241900-
SOUTH CENTRAL WISCONSIN

CITY           SKY/WX    TMP DP  RH WIND       PRES   REMARKS
REEDSBURG      SUNNY     60  38  43 S13       29.38F
6HR MIN TEMP:  42; 6HR MAX TEMP:  61;

BARABOO/DELLS  SUNNY     62  35  36 SW18G25   29.38F
6HR MIN TEMP:  45; 6HR MAX TEMP:  62;

LONE ROCK      SUNNY     62  38  40 SW16G22   29.41F
6HR MIN TEMP:  41; 6HR MAX TEMP:  62;

MINERAL POINT  SUNNY     61  36  39 S16G28    29.42F
MADISON        MOSUNNY   59  36  42 SW12G24   29.43F
6HR MIN TEMP:  39; 6HR MAX TEMP:  59;

MIDDLETON      SUNNY     63  36  36 S18       29.42F
6HR MIN TEMP:  41; 6HR MAX TEMP:  63;

WATERTOWN      SUNNY     60  37  41 S16G30    29.44F
6HR MIN TEMP:  38; 6HR MAX TEMP:  60;

MONROE         SUNNY     57  36  44 S25G31    29.45F
JANESVILLE     SUNNY     63  36  36 S18G24    29.48F
$$

WIZ051-052-058>065-066-070>072-241900-
SOUTHEAST WISCONSIN

CITY           SKY/WX    TMP DP  RH WIND       PRES   REMARKS
MILWAUKEE      MOSUNNY   63  37  38 SW20G33   29.50F
6HR MIN TEMP:  42; 6HR MAX TEMP:  63;

WAUKESHA       SUNNY     57  36  44 SW17G25   29.50F
MILWAUKEE/TIMM SUNNY     61  30  31 SW20G25   29.49F
RACINE         SUNNY     61  36  39 S18G31    29.53F
6HR MIN TEMP:  38; 6HR MAX TEMP:  61;

BURLINGTON     SUNNY     63  43  48 S21G26    29.50F
6HR MIN TEMP:  41; 6HR MAX TEMP:  63;

KENOSHA        SUNNY     60  35  39 SW17G33   29.53F
6HR MIN TEMP:  39; 6HR MAX TEMP:  60;

FOND DU LAC    SUNNY     60  35  39 SW20G33   29.40F
6HR MIN TEMP:  41; 6HR MAX TEMP:  60;

SHEBOYGAN      MOSUNNY   66  40  38 S21G29    29.41F
6HR MIN TEMP:  44; 6HR MAX TEMP:  66; 6HR PCP: TRACE;

WEST BEND      SUNNY     61  34  36 SW17G33   29.43F
JUNEAU         SUNNY     58  37  46 S23       29.45F
6HR MIN TEMP:  37; 6HR MAX TEMP:  58;

$$

LSZ147-162-241900-
LAKE SUPERIOR

STATION/POSITION TIME  TEMP    WIND        PRES    WAVE
                       AIR SEA DIR/SP/G            HT/PER
                 (UTC) (F)     (DEG/KT/KT) (MB)    (FT/S)
DEVILS ISLAND    1800   44     230/ 20/ 22  989.9F
SAXON HARBOR     1730   52     200/ 11/ 16  990.9S
$$

LMZ867-665-643>646-241900-
LAKE MICHIGAN

STATION/POSITION TIME  TEMP    WIND        PRES    WAVE
                       AIR SEA DIR/SP/G            HT/PER
                 (UTC) (F)     (DEG/KT/KT) (MB)    (FT/S)
N MID LAKE BUOY  1750



USA.gov is the U.S. government's official web portal to all federal, state and local government web resources and services.